Погода в Мусине

ЮАР     22°19′57″S   30°01′59″E
темп.,
°C
ветер,
м/с
пор.,
м/с
влажн.,
%
обл.,
%
осадки,
мм/ч
давл.,
гПа
погр.,
м
17 августа, ср
ср1723:00+17вюв22435 0.0 102011
02:00+14всв01505 0.0 101911
05:00+13ссз11535 0.0 101911
08:00+17сз224168 0.0 1020183
11:00+24сз23295 0.0 1018802
14:00+28сз34205 0.0 10131275
17:00+29зсз2318100 0.0 1011163
20:00+23ю222566 0.0 101211
18 августа, чт
чт1823:00+21вюв1229100 0.0 101311
02:00+21с343096 0.0 101218
05:00+17ссз22375 0.0 101211
08:00+22зсз11284 0.0 1013122
11:00+29сз34175 0.0 1012668
14:00+35зсз571132 0.0 10072444
17:00+34ююв221210 0.0 100521
20:00+28всв441546 0.0 100724
19 августа, пт
пт1923:00+25з22206 0.0 100813
02:00+21ссв222210 0.0 100715
05:00+21зсз44215 0.0 100827
08:00+23зюз7111731 0.0 1010407
11:00+30з911101 0.0 10111545
14:00+31зюз1213100 0.0 10102065
17:00+27зюз111385 0.0 10111550
20:00+21юз712135 0.0 1016234
20 августа, сб
сб2023:00+18юз610178 0.0 1018128
02:00+16юз45215 0.0 101851
05:00+14ююв33255 0.0 102018
08:00+15всв34695 0.0 1022261
11:00+22сз33265 0.0 10211264
14:00+27зюз451284 0.0 10161864
17:00+27зсз661132 0.0 1016626
20:00+21з33174 0.0 101915
21 августа, вс
вс2123:00+19ю33150 0.0 102013
02:00+15юв1016600 0.0 1023475
05:00+14вюв1218717 0.0 1025768
08:00+16вюв111465100 0.0 10271218
11:00+18в91157100 0.0 10281458
14:00+18в8954100 0.0 10261500
17:00+19в78487 0.0 10241473
20:00+15юв45620 0.0 102663